Date,TemperatureHighF,TemperatureAvgF,TemperatureLowF,DewpointHighF,DewpointAvgF,DewpointLowF,HumidityHigh,HumidityAvg,HumidityLow,PressureMaxIn,PressureMinIn,WindSpeedMaxMPH,WindSpeedAvgMPH,GustSpeedMaxMPH,PrecipitationSumIn
2013-4-13,79,73,66,65,63,61,90,72,58,29.69,29.51,10,4,20,0.00
2013-4-14,85,75,68,71,68,64,92,80,63,29.57,29.44,9,4,21,0.00
2013-4-15,84,77,72,72,70,68,91,80,67,29.59,29.48,10,6,22,0.00
2013-4-16,81,76,73,73,71,69,93,86,74,29.66,29.53,11,6,22,0.00
2013-4-17,76,74,74,73,72,71,94,93,90,29.65,29.60,7,5,15,0.00
2013-4-18,84,65,61,75,54,46,90,69,58,29.84,29.47,21,10,33,0.18
2013-4-19,74,60,51,47,39,25,81,47,23,30.11,29.84,17,7,32,0.05
2013-4-20,74,66,48,56,49,41,90,57,34,30.01,29.82,11,4,18,0.00
2013-4-21,81,72,62,64,60,54,85,67,50,29.89,29.79,9,4,17,0.00
2013-4-22,83,74,68,68,66,64,87,77,58,29.87,29.69,11,5,18,0.00
2013-4-23,82,75,70,71,69,67,91,83,68,29.72,29.61,14,6,25,0.00
2013-4-24,74,60,52,71,53,47,92,79,64,29.98,29.72,21,7,30,0.07
2013-4-25,69,65,63,67,57,50,94,77,58,30.06,29.92,9,5,20,0.01
2013-4-26,81,74,69,72,70,67,95,88,75,29.95,29.81,10,5,22,0.01
2013-4-27,82,76,72,73,71,70,93,85,70,29.85,29.69,9,5,19,0.00
2013-4-28,79,72,67,71,68,65,96,87,74,29.81,29.62,10,3,25,0.85
2013-4-29,83,74,69,73,70,64,96,87,64,29.71,29.55,13,2,27,0.01
2013-4-30,84,76,64,73,70,63,95,81,66,29.59,29.49,7,4,17,0.35
2013-5-1,85,77,72,75,72,70,95,84,67,29.68,29.52,8,3,16,0.00
2013-5-2,83,71,56,72,62,44,94,73,54,30.06,29.60,14,5,30,0.07
2013-5-3,74,62,53,45,34,24,66,38,16,30.11,29.88,12,6,35,0.27
2013-5-4,79,66,50,56,46,37,82,52,24,29.90,29.69,9,3,19,0.00
2013-5-5,83,70,57,62,57,53,89,65,40,29.87,29.73,7,2,17,0.00
2013-5-6,83,71,58,70,59,55,94,68,44,29.90,29.75,7,2,17,0.00
2013-5-7,82,73,62,71,63,59,94,72,54,29.86,29.73,8,3,17,0.00
2013-5-8,83,76,72,71,68,66,88,78,63,29.81,29.69,10,6,21,0.00
2013-5-9,82,77,74,74,73,70,91,87,77,29.73,29.58,9,6,21,0.00
2013-5-10,82,76,73,76,73,68,95,90,78,29.73,29.59,10,3,19,0.05
2013-5-11,86,77,71,71,69,65,93,76,55,29.87,29.70,10,4,20,0.17
2013-5-12,80,73,66,71,64,58,93,74,58,29.96,29.81,11,3,20,0.41
2013-5-13,83,74,65,68,65,62,93,73,52,30.04,29.93,7,3,15,0.00
2013-5-14,85,77,72,72,70,66,86,78,64,30.00,29.85,10,5,20,0.00
2013-5-15,81,77,74,75,72,71,94,86,78,29.90,29.67,12,7,27,0.25
2013-5-16,84,79,74,75,73,71,90,83,74,29.70,29.52,12,7,27,0.01
2013-5-17,87,80,76,76,74,71,91,82,61,29.70,29.57,12,6,24,0.00
2013-5-18,86,80,77,76,75,72,93,84,66,29.71,29.61,10,7,24,0.00
2013-5-19,86,80,77,76,75,74,91,83,71,29.67,29.54,10,7,24,0.00
2013-5-20,86,80,77,77,75,74,91,84,72,29.62,29.51,10,6,24,0.00
2013-5-21,87,81,78,77,76,74,93,84,71,29.59,29.48,10,6,22,0.00
2013-5-22,88,82,78,78,76,75,95,84,67,29.67,29.55,7,4,16,0.00
2013-5-23,88,82,78,79,77,76,94,85,72,29.78,29.64,9,5,17,0.00
2013-5-24,89,82,79,77,76,75,92,83,67,29.87,29.73,10,6,22,0.00
2013-5-25,85,81,79,77,76,74,89,85,78,29.87,29.78,9,7,22,0.00
2013-5-26,88,82,78,75,74,72,87,77,63,29.86,29.75,11,6,19,0.00
2013-5-27,88,82,79,76,75,74,89,79,66,29.78,29.65,12,7,26,0.01
2013-5-28,88,82,80,77,76,74,87,80,67,29.70,29.57,14,9,28,0.12
2013-5-29,86,81,79,78,76,75,91,84,75,29.64,29.51,13,8,27,0.07
2013-5-30,90,83,80,79,77,75,89,81,69,29.61,29.53,11,7,22,0.00
2013-5-31,90,84,80,79,77,76,90,80,67,29.66,29.56,11,7,23,0.00
2013-6-1,91,85,81,79,77,76,86,79,65,29.67,29.57,12,7,24,0.00
2013-6-2,96,84,76,81,76,70,91,77,47,29.80,29.64,9,3,21,0.02
2013-6-3,91,82,72,75,72,69,92,73,57,29.73,29.61,6,3,14,0.00
2013-6-4,91,82,71,80,72,69,95,73,52,29.67,29.58,6,3,15,0.00
2013-6-5,94,85,77,79,75,73,89,72,53,29.64,29.56,7,3,16,0.00
2013-6-6,94,85,76,78,76,73,92,75,54,29.63,29.52,7,3,16,0.00
2013-6-7,92,82,72,77,74,69,92,79,56,29.73,29.61,9,3,20,0.12
2013-6-8,92,83,73,78,75,69,91,77,56,29.69,29.58,8,3,17,0.00
2013-6-9,95,86,82,79,77,73,88,74,50,29.71,29.59,8,5,17,0.01
2013-6-10,93,86,79,81,76,73,89,73,60,29.74,29.68,7,3,19,0.00
2013-6-11,92,86,81,79,76,73,86,73,60,29.80,29.73,8,5,18,0.00
2013-6-12,94,86,78,81,77,74,92,77,61,29.81,29.73,9,5,20,0.11
2013-6-13,92,85,83,80,78,75,84,78,63,29.81,29.69,9,4,21,0.00
2013-6-14,92,85,82,81,78,76,88,80,68,29.76,29.65,8,5,17,0.01
2013-6-15,93,86,82,78,77,74,86,76,56,29.76,29.66,9,5,18,0.00
2013-6-16,93,86,82,80,78,76,84,76,64,29.78,29.70,10,6,23,0.00
2013-6-17,94,86,82,80,78,76,88,76,59,29.75,29.64,11,6,23,0.00
2013-6-18,93,86,79,79,77,76,89,75,59,29.75,29.65,9,5,20,0.00
2013-6-19,94,86,80,78,77,75,87,74,59,29.79,29.69,10,5,21,0.00
2013-6-20,94,86,81,79,78,77,87,76,60,29.83,29.73,9,5,21,0.00
2013-6-21,94,86,81,79,78,76,87,75,60,29.85,29.77,8,5,17,0.00
2013-6-22,93,86,81,79,77,74,88,75,56,29.82,29.70,9,5,20,0.00
2013-6-23,93,86,80,78,77,73,88,75,56,29.77,29.68,12,6,21,0.00
2013-6-24,92,86,82,80,78,76,87,77,62,29.81,29.70,12,7,26,0.00
2013-6-25,92,85,81,79,78,77,88,78,65,29.78,29.68,12,6,27,0.00
2013-6-26,94,86,81,80,78,77,91,79,61,29.75,29.68,11,6,24,0.00
2013-6-27,93,86,80,79,77,76,90,77,59,29.78,29.70,8,5,19,0.00
2013-6-28,94,86,78,82,77,75,93,75,56,29.77,29.61,9,4,19,0.00
2013-6-29,101,87,77,79,76,72,92,70,41,29.66,29.50,8,3,15,0.00
2013-6-30,92,81,72,76,72,69,95,75,54,29.73,29.53,20,2,40,1.03
2013-7-1,94,84,75,78,72,68,91,71,45,29.74,29.61,8,2,20,0.00
2013-7-2,96,85,78,76,69,61,88,61,32,29.81,29.71,7,2,14,0.00
2013-7-3,96,82,73,74,72,68,87,72,41,29.80,29.68,8,2,16,0.00
2013-7-4,93,84,72,82,74,70,96,73,54,29.76,29.66,6,2,16,0.00
2013-7-5,95,85,75,81,75,70,93,72,46,29.73,29.61,6,3,16,0.00
2013-7-6,94,85,77,80,77,74,95,76,59,29.68,29.60,7,3,19,0.00
2013-7-7,94,85,80,78,76,72,87,75,52,29.75,29.64,10,4,19,0.00
2013-7-8,92,85,79,79,77,73,87,77,62,29.88,29.75,9,5,20,0.00
2013-7-9,94,87,81,80,78,76,91,76,59,29.89,29.80,7,4,17,0.00
2013-7-10,93,88,81,79,77,74,86,72,59,29.86,29.72,9,4,17,0.00
2013-7-11,95,87,79,81,77,74,89,72,55,29.78,29.67,9,4,18,0.00
2013-7-12,95,86,77,81,76,73,91,71,54,29.73,29.66,8,3,17,0.00
2013-7-13,98,86,76,81,75,72,94,71,47,29.75,29.65,7,3,17,0.00
2013-7-14,93,86,78,78,76,74,89,73,55,29.70,29.60,9,4,21,0.00
2013-7-15,93,86,82,78,77,74,82,73,61,29.75,29.63,9,6,21,0.00
2013-7-16,92,83,78,79,76,73,92,80,60,29.82,29.70,10,5,22,0.43
2013-7-17,82,78,73,78,75,71,99,92,80,29.92,29.80,8,2,19,2.82
2013-7-18,93,82,76,78,76,73,96,83,59,29.91,29.75,5,2,15,0.14
2013-7-19,93,85,76,84,77,75,98,78,60,29.82,29.69,7,3,17,0.24
2013-7-20,92,86,80,78,77,75,86,75,63,29.75,29.64,7,4,15,0.00
2013-7-21,93,87,80,84,79,78,96,79,64,29.75,29.66,9,5,22,0.26
2013-7-22,92,87,84,81,79,78,86,78,65,29.78,29.68,11,7,25,0.00
2013-7-23,92,87,82,80,78,76,83,75,64,29.79,29.68,11,6,24,0.00
2013-7-24,93,86,82,80,78,75,88,77,62,29.76,29.65,8,5,18,0.00
2013-7-25,94,87,81,81,78,76,89,77,64,29.79,29.73,9,4,24,0.00
2013-7-26,93,86,81,81,78,77,89,78,67,29.81,29.68,11,5,24,0.00
2013-7-27,95,86,81,80,78,77,91,78,61,29.78,29.59,10,4,24,0.00
2013-7-28,92,86,81,80,79,77,91,79,64,29.72,29.64,11,6,24,0.00
2013-7-29,91,86,81,80,78,77,91,79,64,29.84,29.71,11,7,25,0.00
2013-7-30,92,86,81,81,79,77,92,80,65,29.88,29.78,11,6,21,0.01
2013-7-31,93,86,80,80,78,76,89,78,63,29.87,29.75,8,4,17,0.00
2013-8-1,95,87,79,81,77,74,94,75,53,29.80,29.70,8,4,16,0.00
2013-8-2,95,86,78,83,77,74,94,75,54,29.77,29.68,8,4,17,0.00
2013-8-3,94,87,81,81,78,75,91,77,61,29.80,29.72,9,5,20,0.00
2013-8-4,95,87,82,81,79,76,89,77,61,29.83,29.74,10,5,24,0.00
2013-8-5,94,86,82,81,79,77,92,78,62,29.81,29.69,12,6,27,0.06
2013-8-6,93,86,81,81,79,78,92,79,63,29.74,29.62,12,6,29,0.02
2013-8-7,93,86,81,80,78,77,90,79,63,29.71,29.61,12,6,25,0.00
2013-8-8,92,83,80,80,78,77,91,85,66,29.69,29.60,11,4,17,0.00
2013-8-9,98,89,79,83,79,75,93,74,52,29.73,29.64,6,3,16,0.00
2013-8-10,95,87,80,82,79,76,95,80,61,29.78,29.71,6,2,15,0.00
2013-8-11,96,86,77,81,78,74,95,77,56,29.81,29.74,9,3,21,0.02
2013-8-12,94,86,78,83,78,76,93,77,58,29.85,29.75,8,3,17,0.00
2013-8-13,96,88,82,81,79,77,89,76,57,29.82,29.67,9,4,18,0.00
2013-8-14,96,87,80,81,77,72,93,75,50,29.77,29.67,8,4,17,0.00
2013-8-15,96,86,76,80,78,74,94,77,56,29.76,29.67,8,3,17,0.00
2013-8-16,96,87,79,81,78,74,91,75,53,29.78,29.65,7,3,20,0.01
2013-8-17,94,84,76,77,75,71,92,73,52,29.78,29.68,8,4,17,0.00
2013-8-18,94,85,76,79,73,66,94,70,47,29.81,29.72,8,3,19,0.00
2013-8-19,95,85,74,77,74,71,94,71,49,29.81,29.69,6,2,16,0.00
2013-8-20,85,80,75,77,76,72,95,86,78,29.81,29.70,5,2,14,0.56
2013-8-21,95,86,81,81,78,76,93,78,62,29.82,29.75,6,3,16,0.00
2013-8-22,95,86,78,80,77,74,94,76,55,29.83,29.70,6,2,14,0.00
2013-8-23,95,86,79,82,77,75,92,75,54,29.78,29.67,6,2,14,0.02
2013-8-24,94,86,79,80,78,75,92,78,57,29.78,29.69,10,3,17,0.00
2013-8-25,94,86,81,80,78,76,89,76,58,29.82,29.73,8,4,17,0.00
2013-8-26,92,80,76,80,77,74,97,89,64,29.86,29.77,5,1,11,0.70
2013-8-27,93,86,79,80,78,73,91,78,62,29.85,29.76,6,4,16,0.00
2013-8-28,94,86,77,80,77,75,95,77,56,29.86,29.77,6,2,14,0.00
2013-8-29,96,87,78,84,77,72,94,74,49,29.85,29.75,6,2,14,0.00
2013-8-30,98,87,78,80,76,72,94,72,47,29.81,29.69,6,2,17,0.00
2013-8-31,97,86,77,80,76,70,91,72,46,29.73,29.62,7,3,17,0.00
2013-9-1,97,85,77,82,77,74,93,77,53,29.70,29.61,11,2,17,0.00
2013-9-2,97,88,79,81,78,75,92,72,57,29.74,29.64,8,4,17,0.00
2013-9-3,97,86,78,80,77,74,94,74,50,29.78,29.67,7,2,14,0.00
2013-9-4,97,86,78,79,77,73,94,75,50,29.81,29.70,6,2,17,0.00
2013-9-5,96,89,84,79,77,75,81,70,55,29.83,29.76,6,4,15,0.00
2013-9-6,93,82,78,81,76,75,91,84,59,29.84,29.72,9,1,13,0.13
2013-9-7,93,84,77,78,77,74,95,80,59,29.79,29.68,6,2,14,0.02
2013-9-8,97,82,75,79,76,72,98,83,55,29.76,29.66,7,2,20,1.52
2013-9-9,91,83,79,79,76,74,91,79,63,29.73,29.65,9,5,23,0.14
2013-9-10,89,81,75,80,76,74,98,85,70,29.80,29.70,9,3,25,1.49
2013-9-11,92,84,77,81,77,73,91,81,65,29.82,29.74,10,2,24,0.18
2013-9-12,93,85,79,79,76,73,91,75,55,29.79,29.67,5,2,16,0.00
2013-9-13,92,84,78,79,77,74,95,80,60,29.71,29.58,7,3,17,0.05
2013-9-14,93,86,80,80,77,75,90,77,61,29.66,29.58,5,3,16,0.06
2013-9-15,92,86,81,79,78,74,89,77,65,29.71,29.61,8,4,21,0.04
2013-9-16,90,82,77,80,78,74,98,87,73,29.75,29.65,9,4,27,0.71
2013-9-17,92,85,79,81,78,72,89,80,67,29.78,29.68,7,3,17,0.01
2013-9-18,91,84,79,80,78,74,93,81,67,29.76,29.65,8,3,17,0.11
2013-9-19,93,86,80,81,79,77,91,79,66,29.69,29.58,8,4,17,0.00
2013-9-20,91,85,79,82,80,77,95,85,70,29.62,29.48,8,3,17,0.38
2013-9-21,80,78,76,77,73,69,99,86,70,29.59,29.49,13,6,26,0.45
2013-9-22,89,80,73,71,67,59,85,67,39,29.62,29.52,9,4,19,0.00
2013-9-23,89,80,74,77,72,67,89,77,63,29.59,29.51,7,2,14,0.00
2013-9-24,98,84,74,76,73,68,93,73,38,29.67,29.57,4,1,12,0.00
2013-9-25,98,84,74,77,74,62,96,74,33,29.67,29.57,5,1,11,0.00
2013-9-26,96,85,78,81,76,74,94,76,54,29.65,29.58,8,3,19,0.00
2013-9-27,91,86,83,81,80,76,89,81,70,29.68,29.59,9,6,19,0.00
2013-9-28,93,86,83,81,79,77,89,79,66,29.74,29.63,9,6,20,0.00
2013-9-29,94,82,76,81,77,74,99,84,55,29.79,29.65,6,1,16,0.57
2013-9-30,90,82,76,79,77,75,99,88,66,29.70,29.58,5,2,12,0.01
2013-10-1,92,85,79,82,79,76,97,83,67,29.68,29.59,8,3,18,0.00
2013-10-2,95,86,79,80,77,75,89,77,59,29.72,29.63,8,4,18,0.00
2013-10-3,91,84,77,79,76,74,97,78,62,29.71,29.62,7,3,17,0.12
2013-10-4,92,85,80,79,76,74,88,77,64,29.69,29.62,8,4,18,0.00
2013-10-5,94,84,75,82,77,73,96,80,62,29.71,29.62,6,3,14,0.00
2013-10-6,82,71,59,78,58,47,94,66,35,29.91,29.70,16,6,34,0.52
2013-10-7,86,72,62,59,54,41,82,54,24,29.95,29.82,5,1,13,0.00
2013-10-8,87,73,61,64,60,56,92,67,40,29.88,29.77,4,1,11,0.00
2013-10-9,89,79,70,71,66,62,85,65,48,29.82,29.73,6,3,12,0.00
2013-10-10,90,82,78,73,71,66,80,69,53,29.79,29.67,8,4,20,0.00
2013-10-11,91,84,80,80,78,73,91,82,68,29.70,29.60,9,6,21,0.00
2013-10-12,91,85,82,81,80,78,94,85,70,29.78,29.66,9,5,20,0.00
2013-10-13,89,82,77,82,78,74,95,86,70,29.88,29.76,8,4,16,0.22
2013-10-14,87,82,80,78,75,72,90,78,68,29.83,29.70,8,5,17,0.02
2013-10-15,89,83,80,76,74,72,84,75,61,29.75,29.64,8,4,16,0.00
2013-10-16,83,77,68,78,71,63,95,81,66,29.81,29.66,9,4,17,0.00
2013-10-17,81,71,66,68,62,58,87,74,53,29.88,29.73,8,4,17,0.00
2013-10-18,85,78,74,78,74,68,97,89,77,29.76,29.58,6,2,15,0.76
2013-10-19,79,70,64,77,60,48,96,74,45,29.92,29.66,13,7,27,0.25
2013-10-20,83,70,60,68,60,48,82,71,55,29.87,29.70,6,3,12,0.00
2013-10-21,86,75,69,77,72,68,99,89,71,29.73,29.62,6,2,14,0.83
2013-10-22,82,72,65,72,62,49,99,73,44,29.91,29.73,10,5,24,0.00
2013-10-23,86,69,60,60,54,43,86,61,24,29.98,29.88,5,1,11,0.00
2013-10-24,75,62,59,67,57,54,93,85,73,29.98,29.90,3,0,8,0.00
2013-10-25,85,78,69,71,68,64,85,72,60,29.98,29.89,8,3,14,0.00
2013-10-26,85,79,75,72,70,67,85,73,60,29.90,29.77,10,5,14,0.00
2013-10-27,89,79,70,77,72,69,98,81,53,29.79,29.68,7,2,12,0.00
2013-10-28,85,79,76,76,74,73,93,83,71,29.78,29.69,10,5,17,0.00
2013-10-29,86,81,77,77,75,74,93,83,69,29.80,29.68,10,6,22,0.00
2013-10-30,87,82,79,80,78,77,95,89,77,29.72,29.54,10,6,21,0.00
2013-10-31,90,82,78,81,77,71,97,85,60,29.60,29.49,5,2,17,0.09
2013-11-1,86,79,72,74,71,66,95,77,61,29.70,29.53,7,2,15,0.00
2013-11-2,80,72,65,73,46,32,96,41,18,29.97,29.70,13,8,27,0.00
2013-11-3,79,71,63,60,54,44,72,57,43,29.93,29.73,6,3,14,0.00
2013-11-4,85,73,63,71,65,57,92,77,52,29.75,29.63,5,1,10,0.00
2013-11-5,85,78,70,76,73,68,99,86,71,29.70,29.61,10,4,21,0.00
2013-11-6,91,76,62,77,71,54,97,85,63,29.95,29.66,13,5,27,0.22
2013-11-7,70,62,57,54,44,33,76,52,27,30.12,29.94,15,8,28,0.01
2013-11-8,72,64,58,59,54,45,89,71,55,30.06,29.85,10,5,20,0.00
2013-11-9,82,71,61,68,64,58,96,80,52,29.87,29.80,4,1,12,0.00
2013-11-10,75,70,67,69,63,55,98,81,55,29.98,29.84,9,4,20,0.00
2013-11-11,77,71,66,67,63,58,92,77,70,29.95,29.83,6,3,14,0.00
2013-11-12,76,67,57,66,58,46,94,75,53,30.26,29.89,14,8,30,0.00
2013-11-13,60,52,47,48,38,31,73,60,34,30.32,30.11,14,5,27,0.00
2013-11-14,69,60,48,60,52,37,96,75,55,30.11,29.74,6,2,13,0.00
2013-11-15,82,68,55,68,63,55,99,87,57,29.74,29.60,5,2,11,0.00
2013-11-16,82,74,66,76,72,65,99,94,81,29.63,29.49,7,3,16,0.00
2013-11-17,86,76,72,76,74,72,99,93,73,29.64,29.50,6,2,14,0.00
2013-11-18,82,75,70,82,73,67,99,94,79,29.76,29.63,8,2,17,0.00
2013-11-19,75,71,68,68,66,63,93,85,75,29.78,29.67,8,5,21,0.00
2013-11-20,83,75,70,76,73,68,99,92,78,29.69,29.56,6,3,15,0.00
2013-11-21,86,78,74,79,76,73,99,94,80,29.75,29.62,8,4,19,0.00
2013-11-22,79,61,44,79,61,43,99,99,86,30.02,29.73,16,6,28,0.33
2013-11-23,48,45,42,46,44,42,99,95,89,30.12,30.01,10,6,24,0.00
2013-11-24,49,47,44,48,44,40,99,88,77,30.12,29.99,12,7,24,0.17
2013-11-25,48,45,42,46,43,39,99,94,82,29.99,29.73,10,6,22,0.25
2013-11-26,52,46,40,43,40,37,99,81,57,30.07,29.81,9,4,27,0.20
2013-11-27,55,46,39,40,34,31,95,66,41,30.19,30.07,11,3,23,0.00
2013-11-28,59,52,40,54,44,33,98,75,54,30.15,30.05,8,3,14,0.00
2013-11-29,69,59,50,62,56,49,99,90,75,30.15,30.05,8,4,19,0.00
2013-11-30,78,67,58,66,61,58,99,82,60,30.06,29.91,7,2,16,0.00
2013-12-1,81,67,58,70,63,51,99,87,60,29.93,29.79,7,1,12,2.10
2013-12-2,81,67,59,69,64,52,99,92,60,30.12,29.70,4,1,10,0.01
2013-12-3,81,69,64,71,67,63,99,95,69,29.85,29.73,5,1,12,0.00
2013-12-4,79,72,68,74,71,68,99,96,82,29.88,29.77,6,2,18,0.00
2013-12-5,80,65,44,77,63,42,99,95,85,30.09,29.86,12,4,24,0.00
2013-12-6,49,43,38,42,38,32,99,85,71,30.45,30.07,11,7,23,0.00
2013-12-7,38,36,36,35,33,31,94,87,81,30.51,30.35,10,5,19,0.00
2013-12-8,49,43,36,49,41,35,99,94,84,30.35,30.13,5,3,13,0.00
2013-12-9,54,50,44,54,50,43,99,99,99,30.36,30.09,12,6,24,0.02
2013-12-10,49,44,39,43,35,30,99,71,50,30.56,30.36,14,5,28,0.00
2013-12-11,54,51,47,48,42,37,80,72,65,30.57,30.38,7,4,14,0.00
2013-12-12,58,52,47,44,42,39,81,68,51,30.63,30.40,10,5,21,0.00
2013-12-13,70,58,49,63,53,43,99,83,66,30.41,29.95,5,2,12,0.00
2013-12-14,72,59,48,59,50,39,99,73,36,30.40,29.95,10,5,21,0.00
2013-12-15,62,47,39,42,36,31,98,67,32,30.52,30.38,11,4,20,0.00
2013-12-16,68,51,36,54,44,36,99,80,35,30.44,30.31,5,1,12,0.00
2013-12-17,71,57,44,60,53,43,99,88,57,30.42,30.31,6,2,11,0.00
2013-12-18,74,63,50,65,57,50,99,83,55,30.37,30.16,6,2,13,0.00
2013-12-19,75,69,64,69,67,62,99,92,76,30.16,29.92,11,5,25,0.00
2013-12-20,77,70,65,74,69,65,99,97,88,29.93,29.74,10,5,25,0.02
2013-12-21,82,70,62,73,67,58,99,89,59,29.89,29.66,10,4,24,0.00
2013-12-22,74,64,50,62,52,38,99,70,33,30.41,29.87,14,6,27,0.00
2013-12-23,61,49,42,43,35,27,77,60,30,30.60,30.41,12,5,27,0.00
2013-12-24,64,54,41,53,47,38,99,77,59,30.60,30.33,6,2,12,0.00
2013-12-25,71,60,52,61,58,51,99,92,68,30.39,30.28,6,2,13,0.00
2013-12-26,59,56,53,59,54,48,99,92,74,30.45,30.35,10,7,21,0.08
2013-12-27,57,54,52,54,52,48,99,92,76,30.48,30.37,7,4,14,0.09
2013-12-28,64,53,44,52,44,31,97,73,29,30.38,30.13,6,2,11,0.00
2013-12-29,68,56,43,58,51,42,99,83,49,30.19,30.08,7,1,14,0.00
2013-12-30,60,46,43,57,40,36,92,81,70,30.48,30.16,15,6,25,0.05
2013-12-31,48,46,44,47,40,37,98,82,73,30.53,30.34,7,3,16,0.08
2014-1-1,57,52,48,57,52,47,99,97,90,30.34,30.09,4,2,11,0.00
2014-1-2,58,53,46,58,41,27,99,66,40,30.54,30.13,15,7,29,0.17